contact:dominique.lefevre@mio.osupytheas.fr, maurice.libes@osupytheas.fr, didier.mallarino@osupytheas.fr
Project:EMSO http://www.emso-fr.org/EMSO-France
Depth: 2436.0 m
Title:EMSO Ligure Ouest : Data MII capteur MICROCAT
DateTime_Computer,Latitude,Longitude,Temperature,Conductivity,Pressure,DateTime_Instrument
DateTime_Computer,Latitude,Longitude,degC,S m-1,dbar,DateTime_Instrument
2023-02-12T00:02:03Z,42.805,6.029,13.3056,4.60168,2470.614,2023-2-12T02:04:25Z
2023-02-12T00:05:06Z,42.805,6.029,13.3043,4.60136,2470.614,2023-2-12T02:07:28Z
2023-02-12T00:08:09Z,42.805,6.029,13.3029,4.60125,2470.553,2023-2-12T02:10:31Z
2023-02-12T00:11:12Z,42.805,6.029,13.3043,4.60132,2470.6,2023-2-12T02:13:34Z
2023-02-12T00:14:15Z,42.805,6.029,13.3056,4.60172,2470.637,2023-2-12T02:16:37Z
2023-02-12T00:17:18Z,42.805,6.029,13.3069,4.60157,2470.577,2023-2-12T02:19:40Z
2023-02-12T00:20:21Z,42.805,6.029,13.3054,4.60151,2470.614,2023-2-12T02:22:43Z
2023-02-12T00:23:25Z,42.805,6.029,13.3064,4.60175,2470.614,2023-2-12T02:25:47Z
2023-02-12T00:26:28Z,42.805,6.029,13.3056,4.60175,2470.6,2023-2-12T02:28:50Z
2023-02-12T00:29:31Z,42.805,6.029,13.3061,4.60169,2470.591,2023-2-12T02:31:53Z
2023-02-12T00:32:34Z,42.805,6.029,13.3059,4.60160,2470.6,2023-2-12T02:34:56Z
2023-02-12T00:35:37Z,42.805,6.029,13.3050,4.60170,2470.577,2023-2-12T02:37:59Z
2023-02-12T00:38:40Z,42.805,6.029,13.3083,4.60139,2470.591,2023-2-12T02:41:02Z
2023-02-12T00:41:43Z,42.805,6.029,13.3067,4.60177,2470.577,2023-2-12T02:44:05Z
2023-02-12T00:44:46Z,42.805,6.029,13.3076,4.60149,2470.577,2023-2-12T02:47:08Z
2023-02-12T00:47:49Z,42.805,6.029,13.3043,4.60171,2470.591,2023-2-12T02:50:11Z
2023-02-12T00:50:52Z,42.805,6.029,13.3035,4.60156,2470.577,2023-2-12T02:53:14Z
2023-02-12T00:53:55Z,42.805,6.029,13.3065,4.60141,2470.591,2023-2-12T02:56:17Z
2023-02-12T00:56:58Z,42.805,6.029,13.3066,4.60155,2470.567,2023-2-12T02:59:20Z
2023-02-12T01:00:01Z,42.805,6.029,13.3048,4.60155,2470.6,2023-2-12T03:02:24Z
2023-02-12T01:03:05Z,42.805,6.029,13.3047,4.60147,2470.6,2023-2-12T03:05:27Z
2023-02-12T01:06:08Z,42.805,6.029,13.3063,4.60144,2470.6,2023-2-12T03:08:30Z
2023-02-12T01:09:11Z,42.805,6.029,13.3045,4.60155,2470.6,2023-2-12T03:11:33Z
2023-02-12T01:12:14Z,42.805,6.029,13.3048,4.60132,2470.637,2023-2-12T03:14:36Z
2023-02-12T01:15:17Z,42.805,6.029,13.3063,4.60150,2470.567,2023-2-12T03:17:39Z
2023-02-12T01:18:20Z,42.805,6.029,13.3052,4.60156,2470.553,2023-2-12T03:20:42Z
2023-02-12T01:21:23Z,42.805,6.029,13.3070,4.60165,2470.577,2023-2-12T03:23:45Z
2023-02-12T01:24:26Z,42.805,6.029,13.3048,4.60160,2470.577,2023-2-12T03:26:48Z
2023-02-12T01:27:29Z,42.805,6.029,13.3061,4.60148,2470.553,2023-2-12T03:29:51Z
2023-02-12T01:30:32Z,42.805,6.029,13.3038,4.60150,2470.544,2023-2-12T03:32:54Z
2023-02-12T01:33:35Z,42.805,6.029,13.3053,4.60149,2470.553,2023-2-12T03:35:57Z
2023-02-12T01:36:38Z,42.805,6.029,13.3050,4.60152,2470.567,2023-2-12T03:39:00Z
2023-02-12T01:39:42Z,42.805,6.029,13.3065,4.60166,2470.567,2023-2-12T03:42:04Z
2023-02-12T01:42:45Z,42.805,6.029,13.3087,4.60147,2470.553,2023-2-12T03:45:07Z
2023-02-12T01:45:48Z,42.805,6.029,13.3065,4.60178,2470.577,2023-2-12T03:48:10Z
2023-02-12T01:48:51Z,42.805,6.029,13.3080,4.60175,2470.553,2023-2-12T03:51:13Z
2023-02-12T01:51:54Z,42.805,6.029,13.3075,4.60182,2470.567,2023-2-12T03:54:16Z
2023-02-12T01:54:57Z,42.805,6.029,13.3060,4.60190,2470.553,2023-2-12T03:57:19Z
2023-02-12T01:58:00Z,42.805,6.029,13.3059,4.60162,2470.577,2023-2-12T04:00:22Z
2023-02-12T02:01:03Z,42.805,6.029,13.3048,4.60166,2470.577,2023-2-12T04:03:25Z
2023-02-12T02:04:06Z,42.805,6.029,13.3065,4.60187,2470.553,2023-2-12T04:06:28Z
2023-02-12T02:07:09Z,42.805,6.029,13.3091,4.60174,2470.544,2023-2-12T04:09:31Z
2023-02-12T02:10:12Z,42.805,6.029,13.3041,4.60152,2470.53,2023-2-12T04:12:34Z
2023-02-12T02:13:15Z,42.805,6.029,13.3046,4.60132,2470.544,2023-2-12T04:15:37Z
2023-02-12T02:16:18Z,42.805,6.029,13.3046,4.60142,2470.553,2023-2-12T04:18:41Z
2023-02-12T02:19:22Z,42.805,6.029,13.3073,4.60155,2470.591,2023-2-12T04:21:44Z
2023-02-12T02:22:25Z,42.805,6.029,13.3085,4.60144,2470.544,2023-2-12T04:24:47Z
2023-02-12T02:25:28Z,42.805,6.029,13.3054,4.60136,2470.53,2023-2-12T04:27:50Z
2023-02-12T02:28:31Z,42.805,6.029,13.3067,4.60188,2470.553,2023-2-12T04:30:53Z
2023-02-12T02:31:34Z,42.805,6.029,13.3082,4.60186,2470.553,2023-2-12T04:33:56Z
2023-02-12T02:34:37Z,42.805,6.029,13.3109,4.60143,2470.577,2023-2-12T04:36:59Z
2023-02-12T02:37:40Z,42.805,6.029,13.3059,4.60152,2470.53,2023-2-12T04:40:02Z
2023-02-12T02:40:43Z,42.805,6.029,13.3070,4.60125,2470.553,2023-2-12T04:43:05Z
2023-02-12T02:43:46Z,42.805,6.029,13.3084,4.60116,2470.553,2023-2-12T04:46:08Z
2023-02-12T02:46:49Z,42.805,6.029,13.3040,4.60151,2470.567,2023-2-12T04:49:11Z
2023-02-12T02:49:52Z,42.805,6.029,13.3062,4.60136,2470.544,2023-2-12T04:52:14Z
2023-02-12T02:52:55Z,42.805,6.029,13.3077,4.60102,2470.553,2023-2-12T04:55:17Z
2023-02-12T02:55:58Z,42.805,6.029,13.3084,4.60093,2470.53,2023-2-12T04:58:21Z
2023-02-12T02:59:02Z,42.805,6.029,13.3051,4.60161,2470.52,2023-2-12T05:01:24Z
2023-02-12T03:02:05Z,42.805,6.029,13.3053,4.60183,2470.52,2023-2-12T05:04:27Z
2023-02-12T03:05:08Z,42.805,6.029,13.3061,4.60114,2470.52,2023-2-12T05:07:30Z
2023-02-12T03:08:11Z,42.805,6.029,13.3057,4.60152,2470.553,2023-2-12T05:10:33Z
2023-02-12T03:11:14Z,42.805,6.029,13.3058,4.60108,2470.544,2023-2-12T05:13:36Z
2023-02-12T03:14:17Z,42.805,6.029,13.3061,4.60112,2470.591,2023-2-12T05:16:39Z
2023-02-12T03:17:20Z,42.805,6.029,13.3065,4.60103,2470.52,2023-2-12T05:19:42Z
2023-02-12T03:20:23Z,42.805,6.029,13.3070,4.60175,2470.567,2023-2-12T05:22:45Z
2023-02-12T03:23:26Z,42.805,6.029,13.3057,4.60106,2470.53,2023-2-12T05:25:48Z
2023-02-12T03:26:29Z,42.805,6.029,13.3046,4.60108,2470.507,2023-2-12T05:28:51Z
2023-02-12T03:29:32Z,42.805,6.029,13.3046,4.60144,2470.507,2023-2-12T05:31:54Z
2023-02-12T03:32:35Z,42.805,6.029,13.3066,4.60109,2470.507,2023-2-12T05:34:58Z
2023-02-12T03:35:39Z,42.805,6.029,13.3053,4.60110,2470.558,2023-2-12T05:38:01Z
2023-02-12T03:38:42Z,42.805,6.029,13.3063,4.60109,2470.52,2023-2-12T05:41:04Z
2023-02-12T03:41:45Z,42.805,6.029,13.3093,4.60094,2470.544,2023-2-12T05:44:07Z
2023-02-12T03:44:48Z,42.805,6.029,13.3071,4.60099,2470.553,2023-2-12T05:47:10Z
2023-02-12T03:47:51Z,42.805,6.029,13.3052,4.60116,2470.53,2023-2-12T05:50:13Z
2023-02-12T03:50:54Z,42.805,6.029,13.3048,4.60104,2470.52,2023-2-12T05:53:16Z
2023-02-12T03:53:57Z,42.805,6.029,13.3043,4.60117,2470.53,2023-2-12T05:56:19Z
2023-02-12T03:57:00Z,42.805,6.029,13.3049,4.60101,2470.507,2023-2-12T05:59:22Z
2023-02-12T04:00:03Z,42.805,6.029,13.3051,4.60107,2470.53,2023-2-12T06:02:25Z
2023-02-12T04:03:06Z,42.805,6.029,13.3043,4.60114,2470.507,2023-2-12T06:05:28Z
2023-02-12T04:06:09Z,42.805,6.029,13.3064,4.60124,2470.507,2023-2-12T06:08:31Z
2023-02-12T04:09:12Z,42.805,6.029,13.3050,4.60148,2470.507,2023-2-12T06:11:34Z
2023-02-12T04:12:15Z,42.805,6.029,13.3054,4.60152,2470.507,2023-2-12T06:14:38Z
2023-02-12T04:15:19Z,42.805,6.029,13.3067,4.60101,2470.483,2023-2-12T06:17:41Z
2023-02-12T04:18:22Z,42.805,6.029,13.3056,4.60103,2470.52,2023-2-12T06:20:44Z
2023-02-12T04:21:25Z,42.805,6.029,13.3073,4.60109,2470.507,2023-2-12T06:23:47Z
2023-02-12T04:24:28Z,42.805,6.029,13.3061,4.60140,2470.493,2023-2-12T06:26:50Z
2023-02-12T04:27:31Z,42.805,6.029,13.3072,4.60136,2470.53,2023-2-12T06:29:53Z
2023-02-12T04:30:34Z,42.805,6.029,13.3062,4.60123,2470.507,2023-2-12T06:32:56Z
2023-02-12T04:33:37Z,42.805,6.029,13.3043,4.60088,2470.507,2023-2-12T06:35:59Z
2023-02-12T04:36:40Z,42.805,6.029,13.3046,4.60122,2470.483,2023-2-12T06:39:02Z
2023-02-12T04:39:43Z,42.805,6.029,13.3066,4.60106,2470.507,2023-2-12T06:42:05Z
2023-02-12T04:42:46Z,42.805,6.029,13.3058,4.60107,2470.52,2023-2-12T06:45:08Z
2023-02-12T04:45:49Z,42.805,6.029,13.3032,4.60132,2470.52,2023-2-12T06:48:11Z
2023-02-12T04:48:52Z,42.805,6.029,13.3066,4.60155,2470.483,2023-2-12T06:51:15Z
2023-02-12T04:51:56Z,42.805,6.029,13.3069,4.60128,2470.497,2023-2-12T06:54:18Z
2023-02-12T04:54:59Z,42.805,6.029,13.3047,4.60117,2470.52,2023-2-12T06:57:21Z
2023-02-12T04:58:02Z,42.805,6.029,13.3069,4.60131,2470.544,2023-2-12T07:00:24Z
2023-02-12T05:01:05Z,42.805,6.029,13.3074,4.60092,2470.483,2023-2-12T07:03:27Z
2023-02-12T05:04:08Z,42.805,6.029,13.3061,4.60117,2470.507,2023-2-12T07:06:30Z
2023-02-12T05:07:11Z,42.805,6.029,13.3067,4.60120,2470.52,2023-2-12T07:09:33Z
2023-02-12T05:10:14Z,42.805,6.029,13.3048,4.60203,2470.507,2023-2-12T07:12:36Z
2023-02-12T05:13:17Z,42.805,6.029,13.3058,4.60174,2470.483,2023-2-12T07:15:39Z
2023-02-12T05:16:20Z,42.805,6.029,13.3086,4.60117,2470.497,2023-2-12T07:18:42Z
2023-02-12T05:19:23Z,42.805,6.029,13.3062,4.60140,2470.52,2023-2-12T07:21:45Z
2023-02-12T05:22:26Z,42.805,6.029,13.3069,4.60150,2470.483,2023-2-12T07:24:48Z
2023-02-12T05:25:29Z,42.805,6.029,13.3066,4.60162,2470.497,2023-2-12T07:27:52Z
2023-02-12T05:28:32Z,42.805,6.029,13.3078,4.60155,2470.497,2023-2-12T07:30:55Z
2023-02-12T05:31:36Z,42.805,6.029,13.3091,4.60178,2470.52,2023-2-12T07:33:58Z
2023-02-12T05:34:39Z,42.805,6.029,13.3086,4.60166,2470.497,2023-2-12T07:37:01Z
2023-02-12T05:37:42Z,42.805,6.029,13.3076,4.60164,2470.507,2023-2-12T07:40:04Z
2023-02-12T05:40:45Z,42.805,6.029,13.3086,4.60153,2470.46,2023-2-12T07:43:07Z
2023-02-12T05:43:48Z,42.805,6.029,13.3083,4.60180,2470.483,2023-2-12T07:46:10Z
2023-02-12T05:46:51Z,42.805,6.029,13.3065,4.60163,2470.497,2023-2-12T07:49:13Z
2023-02-12T05:49:54Z,42.805,6.029,13.3081,4.60170,2470.497,2023-2-12T07:52:16Z
2023-02-12T05:52:57Z,42.805,6.029,13.3072,4.60097,2470.46,2023-2-12T07:55:19Z
2023-02-12T05:56:00Z,42.805,6.029,13.3055,4.60162,2470.483,2023-2-12T07:58:22Z
2023-02-12T05:59:03Z,42.805,6.029,13.3085,4.60187,2470.474,2023-2-12T08:01:25Z
2023-02-12T06:02:06Z,42.805,6.029,13.3090,4.60146,2470.52,2023-2-12T08:04:28Z
2023-02-12T06:05:09Z,42.805,6.029,13.3073,4.60132,2470.483,2023-2-12T08:07:32Z
2023-02-12T06:08:12Z,42.805,6.029,13.3080,4.60180,2470.507,2023-2-12T08:10:35Z
2023-02-12T06:11:16Z,42.805,6.029,13.3070,4.60193,2470.483,2023-2-12T08:13:38Z
2023-02-12T06:14:19Z,42.805,6.029,13.3102,4.60187,2470.483,2023-2-12T08:16:41Z
2023-02-12T06:17:22Z,42.805,6.029,13.3096,4.60140,2470.52,2023-2-12T08:19:44Z
2023-02-12T06:20:25Z,42.805,6.029,13.3096,4.60160,2470.497,2023-2-12T08:22:47Z
2023-02-12T06:23:28Z,42.805,6.029,13.3089,4.60098,2470.483,2023-2-12T08:25:50Z
2023-02-12T06:26:31Z,42.805,6.029,13.3073,4.60169,2470.497,2023-2-12T08:28:53Z
2023-02-12T06:29:34Z,42.805,6.029,13.3063,4.60117,2470.497,2023-2-12T08:31:56Z
2023-02-12T06:32:37Z,42.805,6.029,13.3071,4.60137,2470.52,2023-2-12T08:34:59Z
2023-02-12T06:35:40Z,42.805,6.029,13.3078,4.60143,2470.483,2023-2-12T08:38:02Z
2023-02-12T06:38:43Z,42.805,6.029,13.3076,4.60124,2470.483,2023-2-12T08:41:05Z
2023-02-12T06:41:46Z,42.805,6.029,13.3078,4.60119,2470.507,2023-2-12T08:44:09Z
2023-02-12T06:44:49Z,42.805,6.029,13.3092,4.60139,2470.497,2023-2-12T08:47:12Z
2023-02-12T06:47:53Z,42.805,6.029,13.3078,4.60105,2470.553,2023-2-12T08:50:15Z
2023-02-12T06:50:56Z,42.805,6.029,13.3058,4.60122,2470.483,2023-2-12T08:53:18Z
2023-02-12T06:53:59Z,42.805,6.029,13.3058,4.60113,2470.507,2023-2-12T08:56:21Z
2023-02-12T06:57:02Z,42.805,6.029,13.3067,4.60122,2470.52,2023-2-12T08:59:24Z
2023-02-12T07:00:05Z,42.805,6.029,13.3056,4.60099,2470.52,2023-2-12T09:02:27Z
2023-02-12T07:03:08Z,42.805,6.029,13.3065,4.60105,2470.507,2023-2-12T09:05:30Z
2023-02-12T07:06:11Z,42.805,6.029,13.3054,4.60119,2470.497,2023-2-12T09:08:33Z
2023-02-12T07:09:14Z,42.805,6.029,13.3051,4.60165,2470.544,2023-2-12T09:11:36Z
2023-02-12T07:12:17Z,42.805,6.029,13.3053,4.60122,2470.52,2023-2-12T09:14:39Z
2023-02-12T07:15:20Z,42.805,6.029,13.3059,4.60129,2470.507,2023-2-12T09:17:42Z
2023-02-12T07:18:23Z,42.805,6.029,13.3061,4.60159,2470.52,2023-2-12T09:20:46Z
2023-02-12T07:21:26Z,42.805,6.029,13.3082,4.60142,2470.52,2023-2-12T09:23:49Z
2023-02-12T07:24:30Z,42.805,6.029,13.3041,4.60119,2470.544,2023-2-12T09:26:52Z
2023-02-12T07:27:33Z,42.805,6.029,13.3043,4.60134,2470.553,2023-2-12T09:29:55Z
2023-02-12T07:30:36Z,42.805,6.029,13.3078,4.60159,2470.507,2023-2-12T09:32:58Z
2023-02-12T07:33:39Z,42.805,6.029,13.3052,4.60192,2470.52,2023-2-12T09:36:01Z
2023-02-12T07:36:42Z,42.805,6.029,13.3110,4.60199,2470.544,2023-2-12T09:39:04Z
2023-02-12T07:39:45Z,42.805,6.029,13.3054,4.60139,2470.544,2023-2-12T09:42:07Z
2023-02-12T07:42:48Z,42.805,6.029,13.3084,4.60146,2470.53,2023-2-12T09:45:10Z
2023-02-12T07:45:51Z,42.805,6.029,13.3073,4.60126,2470.558,2023-2-12T09:48:13Z
2023-02-12T07:48:54Z,42.805,6.029,13.3066,4.60164,2470.591,2023-2-12T09:51:16Z
2023-02-12T07:51:57Z,42.805,6.029,13.3081,4.60117,2470.591,2023-2-12T09:54:19Z
2023-02-12T07:55:00Z,42.805,6.029,13.3062,4.60142,2470.544,2023-2-12T09:57:23Z
2023-02-12T07:58:03Z,42.805,6.029,13.3068,4.60117,2470.553,2023-2-12T10:00:26Z
2023-02-12T08:01:06Z,42.805,6.029,13.3061,4.60136,2470.567,2023-2-12T10:03:29Z
2023-02-12T08:04:10Z,42.805,6.029,13.3063,4.60167,2470.544,2023-2-12T10:06:32Z
2023-02-12T08:07:13Z,42.805,6.029,13.3076,4.60180,2470.577,2023-2-12T10:09:35Z
2023-02-12T08:10:16Z,42.805,6.029,13.3056,4.60193,2470.577,2023-2-12T10:12:38Z
2023-02-12T08:13:19Z,42.805,6.029,13.3078,4.60134,2470.553,2023-2-12T10:15:41Z
2023-02-12T08:16:22Z,42.805,6.029,13.3084,4.60109,2470.567,2023-2-12T10:18:44Z
2023-02-12T08:19:25Z,42.805,6.029,13.3052,4.60159,2470.553,2023-2-12T10:21:47Z
2023-02-12T08:22:28Z,42.805,6.029,13.3063,4.60154,2470.553,2023-2-12T10:24:50Z
2023-02-12T08:25:31Z,42.805,6.029,13.3046,4.60132,2470.577,2023-2-12T10:27:53Z
2023-02-12T08:28:34Z,42.805,6.029,13.3054,4.60167,2470.567,2023-2-12T10:30:56Z
2023-02-12T08:31:37Z,42.805,6.029,13.3100,4.60180,2470.591,2023-2-12T10:34:00Z
2023-02-12T08:34:40Z,42.805,6.029,13.3078,4.60167,2470.577,2023-2-12T10:37:03Z
2023-02-12T08:37:43Z,42.805,6.029,13.3100,4.60178,2470.577,2023-2-12T10:40:06Z
2023-02-12T08:40:47Z,42.805,6.029,13.3100,4.60178,2470.614,2023-2-12T10:43:09Z
2023-02-12T08:43:50Z,42.805,6.029,13.3083,4.60174,2470.614,2023-2-12T10:46:12Z
2023-02-12T08:46:53Z,42.805,6.029,13.3073,4.60188,2470.577,2023-2-12T10:49:15Z
2023-02-12T08:49:56Z,42.805,6.029,13.3098,4.60137,2470.591,2023-2-12T10:52:18Z
2023-02-12T08:52:59Z,42.805,6.029,13.3055,4.60201,2470.6,2023-2-12T10:55:21Z
2023-02-12T08:56:02Z,42.805,6.029,13.3061,4.60153,2470.614,2023-2-12T10:58:24Z
2023-02-12T08:59:05Z,42.805,6.029,13.3072,4.60148,2470.591,2023-2-12T11:01:27Z
2023-02-12T09:02:08Z,42.805,6.029,13.3078,4.60130,2470.624,2023-2-12T11:04:30Z
2023-02-12T09:05:11Z,42.805,6.029,13.3076,4.60152,2470.591,2023-2-12T11:07:33Z
2023-02-12T09:08:14Z,42.805,6.029,13.3074,4.60173,2470.614,2023-2-12T11:10:37Z
2023-02-12T09:11:17Z,42.805,6.029,13.3085,4.60198,2470.661,2023-2-12T11:13:40Z
2023-02-12T09:14:21Z,42.805,6.029,13.3042,4.60190,2470.577,2023-2-12T11:16:43Z
2023-02-12T09:17:24Z,42.805,6.029,13.3082,4.60162,2470.637,2023-2-12T11:19:46Z
2023-02-12T09:20:27Z,42.805,6.029,13.3085,4.60159,2470.637,2023-2-12T11:22:49Z
2023-02-12T09:23:30Z,42.805,6.029,13.3065,4.60170,2470.624,2023-2-12T11:25:52Z
2023-02-12T09:26:33Z,42.805,6.029,13.3064,4.60170,2470.614,2023-2-12T11:28:55Z
2023-02-12T09:29:36Z,42.805,6.029,13.3054,4.60230,2470.624,2023-2-12T11:31:58Z
2023-02-12T09:32:39Z,42.805,6.029,13.3075,4.60178,2470.624,2023-2-12T11:35:01Z
2023-02-12T09:35:42Z,42.805,6.029,13.3056,4.60122,2470.624,2023-2-12T11:38:04Z
2023-02-12T09:38:45Z,42.805,6.029,13.3078,4.60163,2470.614,2023-2-12T11:41:07Z
2023-02-12T09:41:48Z,42.805,6.029,13.3057,4.60173,2470.637,2023-2-12T11:44:10Z
2023-02-12T09:44:51Z,42.805,6.029,13.3060,4.60162,2470.624,2023-2-12T11:47:14Z
2023-02-12T09:47:54Z,42.805,6.029,13.3069,4.60167,2470.624,2023-2-12T11:50:17Z
2023-02-12T09:50:58Z,42.805,6.029,13.3068,4.60157,2470.637,2023-2-12T11:53:20Z
2023-02-12T09:54:01Z,42.805,6.029,13.3061,4.60141,2470.624,2023-2-12T11:56:23Z
2023-02-12T09:57:04Z,42.805,6.029,13.3082,4.60117,2470.591,2023-2-12T11:59:26Z
2023-02-12T10:00:07Z,42.805,6.029,13.3046,4.60160,2470.614,2023-2-12T12:02:29Z
2023-02-12T10:03:10Z,42.805,6.029,13.3067,4.60170,2470.637,2023-2-12T12:05:32Z
2023-02-12T10:06:13Z,42.805,6.029,13.3087,4.60155,2470.637,2023-2-12T12:08:35Z
2023-02-12T10:09:16Z,42.805,6.029,13.3072,4.60155,2470.661,2023-2-12T12:11:38Z
2023-02-12T10:12:19Z,42.805,6.029,13.3081,4.60177,2470.6,2023-2-12T12:14:41Z
2023-02-12T10:15:22Z,42.805,6.029,13.3066,4.60165,2470.646,2023-2-12T12:17:44Z
2023-02-12T10:18:25Z,42.805,6.029,13.3067,4.60152,2470.637,2023-2-12T12:20:48Z
2023-02-12T10:21:28Z,42.805,6.029,13.3067,4.60170,2470.624,2023-2-12T12:23:51Z
2023-02-12T10:24:32Z,42.805,6.029,13.3063,4.60119,2470.646,2023-2-12T12:26:54Z
2023-02-12T10:27:35Z,42.805,6.029,13.3036,4.60129,2470.637,2023-2-12T12:29:57Z
2023-02-12T10:30:38Z,42.805,6.029,13.3034,4.60135,2470.624,2023-2-12T12:33:00Z
2023-02-12T10:33:41Z,42.805,6.029,13.3037,4.60104,2470.637,2023-2-12T12:36:03Z
2023-02-12T10:36:44Z,42.805,6.029,13.3036,4.60143,2470.646,2023-2-12T12:39:06Z
2023-02-12T10:39:47Z,42.805,6.029,13.3055,4.60157,2470.646,2023-2-12T12:42:09Z
2023-02-12T10:42:50Z,42.805,6.029,13.3061,4.60175,2470.67,2023-2-12T12:45:12Z
2023-02-12T10:45:53Z,42.805,6.029,13.3046,4.60169,2470.661,2023-2-12T12:48:15Z
2023-02-12T10:48:56Z,42.805,6.029,13.3066,4.60131,2470.646,2023-2-12T12:51:18Z
2023-02-12T10:51:59Z,42.805,6.029,13.3056,4.60142,2470.637,2023-2-12T12:54:22Z
2023-02-12T10:55:02Z,42.805,6.029,13.3058,4.60139,2470.684,2023-2-12T12:57:25Z
2023-02-12T10:58:05Z,42.805,6.029,13.3078,4.60151,2470.6,2023-2-12T13:00:28Z
2023-02-12T11:01:08Z,42.805,6.029,13.3056,4.60144,2470.624,2023-2-12T13:03:31Z
2023-02-12T11:04:12Z,42.805,6.029,13.3061,4.60186,2470.646,2023-2-12T13:06:34Z
2023-02-12T11:07:15Z,42.805,6.029,13.3067,4.60176,2470.6,2023-2-12T13:09:37Z
2023-02-12T11:10:18Z,42.805,6.029,13.3063,4.60145,2470.637,2023-2-12T13:12:40Z
2023-02-12T11:13:21Z,42.805,6.029,13.3073,4.60137,2470.637,2023-2-12T13:15:43Z
2023-02-12T11:16:24Z,42.805,6.029,13.3078,4.60104,2470.624,2023-2-12T13:18:46Z
2023-02-12T11:19:27Z,42.805,6.029,13.3078,4.60167,2470.637,2023-2-12T13:21:49Z
2023-02-12T11:22:30Z,42.805,6.029,13.3039,4.60170,2470.624,2023-2-12T13:24:52Z
2023-02-12T11:25:33Z,42.805,6.029,13.3043,4.60154,2470.646,2023-2-12T13:27:55Z
2023-02-12T11:28:36Z,42.805,6.029,13.3063,4.60157,2470.646,2023-2-12T13:30:59Z
2023-02-12T11:31:39Z,42.805,6.029,13.3056,4.60151,2470.614,2023-2-12T13:34:02Z
2023-02-12T11:34:42Z,42.805,6.029,13.3061,4.60183,2470.614,2023-2-12T13:37:05Z
2023-02-12T11:37:46Z,42.805,6.029,13.3077,4.60161,2470.637,2023-2-12T13:40:08Z
2023-02-12T11:40:49Z,42.805,6.029,13.3083,4.60164,2470.646,2023-2-12T13:43:11Z
2023-02-12T11:43:52Z,42.805,6.029,13.3048,4.60169,2470.614,2023-2-12T13:46:14Z
2023-02-12T11:46:55Z,42.805,6.029,13.3060,4.60157,2470.614,2023-2-12T13:49:17Z
2023-02-12T11:49:58Z,42.805,6.029,13.3040,4.60167,2470.614,2023-2-12T13:52:20Z
2023-02-12T11:53:01Z,42.805,6.029,13.3070,4.60179,2470.591,2023-2-12T13:55:23Z
2023-02-12T11:56:04Z,42.805,6.029,13.3048,4.60195,2470.614,2023-2-12T13:58:26Z
2023-02-12T11:59:07Z,42.805,6.029,13.3064,4.60190,2470.614,2023-2-12T14:01:29Z
2023-02-12T12:02:10Z,42.805,6.029,13.3055,4.60161,2470.614,2023-2-12T14:04:32Z
2023-02-12T12:05:13Z,42.805,6.029,13.3063,4.60185,2470.637,2023-2-12T14:07:36Z
2023-02-12T12:08:16Z,42.805,6.029,13.3070,4.60157,2470.614,2023-2-12T14:10:39Z
2023-02-12T12:11:19Z,42.805,6.029,13.3072,4.60113,2470.614,2023-2-12T14:13:42Z
2023-02-12T12:14:23Z,42.805,6.029,13.3056,4.60146,2470.614,2023-2-12T14:16:45Z
2023-02-12T12:17:26Z,42.805,6.029,13.3048,4.60119,2470.614,2023-2-12T14:19:48Z
2023-02-12T12:20:29Z,42.805,6.029,13.3058,4.60148,2470.637,2023-2-12T14:22:51Z
2023-02-12T12:23:32Z,42.805,6.029,13.3071,4.60152,2470.624,2023-2-12T14:25:54Z
2023-02-12T12:26:35Z,42.805,6.029,13.3061,4.60185,2470.6,2023-2-12T14:28:57Z
2023-02-12T12:29:38Z,42.805,6.029,13.3075,4.60180,2470.577,2023-2-12T14:32:00Z
2023-02-12T12:32:41Z,42.805,6.029,13.3055,4.60160,2470.6,2023-2-12T14:35:03Z
2023-02-12T12:35:44Z,42.805,6.029,13.3045,4.60140,2470.624,2023-2-12T14:38:06Z
2023-02-12T12:38:47Z,42.805,6.029,13.3066,4.60175,2470.577,2023-2-12T14:41:10Z
2023-02-12T12:41:50Z,42.805,6.029,13.3083,4.60160,2470.577,2023-2-12T14:44:13Z
2023-02-12T12:44:53Z,42.805,6.029,13.3059,4.60163,2470.6,2023-2-12T14:47:16Z
2023-02-12T12:47:56Z,42.805,6.029,13.3094,4.60175,2470.567,2023-2-12T14:50:19Z
2023-02-12T12:51:00Z,42.805,6.029,13.3085,4.60124,2470.6,2023-2-12T14:53:22Z
2023-02-12T12:54:03Z,42.805,6.029,13.3059,4.60144,2470.614,2023-2-12T14:56:25Z
2023-02-12T12:57:06Z,42.805,6.029,13.3079,4.60164,2470.577,2023-2-12T14:59:28Z
2023-02-12T13:00:09Z,42.805,6.029,13.3075,4.60142,2470.591,2023-2-12T15:02:31Z
2023-02-12T13:03:12Z,42.805,6.029,13.3047,4.60132,2470.614,2023-2-12T15:05:34Z
2023-02-12T13:06:15Z,42.805,6.029,13.3058,4.60126,2470.577,2023-2-12T15:08:37Z
2023-02-12T13:09:18Z,42.805,6.029,13.3063,4.60160,2470.567,2023-2-12T15:11:40Z
2023-02-12T13:12:21Z,42.805,6.029,13.3067,4.60135,2470.614,2023-2-12T15:14:43Z
2023-02-12T13:15:24Z,42.805,6.029,13.3070,4.60178,2470.553,2023-2-12T15:17:47Z
2023-02-12T13:18:27Z,42.805,6.029,13.3070,4.60155,2470.6,2023-2-12T15:20:50Z
2023-02-12T13:21:30Z,42.805,6.029,13.3094,4.60147,2470.591,2023-2-12T15:23:53Z
2023-02-12T13:24:33Z,42.805,6.029,13.3073,4.60138,2470.577,2023-2-12T15:26:56Z
2023-02-12T13:27:37Z,42.805,6.029,13.3065,4.60145,2470.567,2023-2-12T15:29:59Z
2023-02-12T13:30:40Z,42.805,6.029,13.3069,4.60110,2470.553,2023-2-12T15:33:02Z
2023-02-12T13:33:43Z,42.805,6.029,13.3054,4.60104,2470.53,2023-2-12T15:36:05Z
2023-02-12T13:36:46Z,42.805,6.029,13.3046,4.60117,2470.567,2023-2-12T15:39:08Z
2023-02-12T13:39:49Z,42.805,6.029,13.3051,4.60135,2470.567,2023-2-12T15:42:11Z
2023-02-12T13:42:52Z,42.805,6.029,13.3048,4.60117,2470.577,2023-2-12T15:45:14Z
2023-02-12T13:45:55Z,42.805,6.029,13.3067,4.60135,2470.577,2023-2-12T15:48:17Z
2023-02-12T13:48:58Z,42.805,6.029,13.3048,4.60122,2470.567,2023-2-12T15:51:20Z
2023-02-12T13:52:01Z,42.805,6.029,13.3054,4.60087,2470.567,2023-2-12T15:54:24Z
2023-02-12T13:55:04Z,42.805,6.029,13.3036,4.60096,2470.591,2023-2-12T15:57:27Z
2023-02-12T13:58:07Z,42.805,6.029,13.3061,4.60088,2470.577,2023-2-12T16:00:30Z
2023-02-12T14:01:10Z,42.805,6.029,13.3043,4.60128,2470.567,2023-2-12T16:03:33Z
2023-02-12T14:04:14Z,42.805,6.029,13.3075,4.60168,2470.567,2023-2-12T16:06:36Z
2023-02-12T14:07:17Z,42.805,6.029,13.3056,4.60110,2470.553,2023-2-12T16:09:39Z
2023-02-12T14:10:20Z,42.805,6.029,13.3056,4.60109,2470.53,2023-2-12T16:12:42Z
2023-02-12T14:13:23Z,42.805,6.029,13.3047,4.60107,2470.553,2023-2-12T16:15:45Z
2023-02-12T14:16:26Z,42.805,6.029,13.3062,4.60104,2470.577,2023-2-12T16:18:48Z
2023-02-12T14:19:29Z,42.805,6.029,13.3057,4.60143,2470.553,2023-2-12T16:21:51Z
2023-02-12T14:22:32Z,42.805,6.029,13.3067,4.60119,2470.544,2023-2-12T16:24:54Z
2023-02-12T14:25:35Z,42.805,6.029,13.3065,4.60097,2470.567,2023-2-12T16:27:58Z
2023-02-12T14:28:38Z,42.805,6.029,13.3061,4.60125,2470.567,2023-2-12T16:31:01Z
2023-02-12T14:31:41Z,42.805,6.029,13.3062,4.60125,2470.553,2023-2-12T16:34:04Z
2023-02-12T14:34:44Z,42.805,6.029,13.3048,4.60108,2470.53,2023-2-12T16:37:07Z
2023-02-12T14:37:47Z,42.805,6.029,13.3051,4.60090,2470.53,2023-2-12T16:40:10Z
2023-02-12T14:40:51Z,42.805,6.029,13.3055,4.60121,2470.52,2023-2-12T16:43:13Z
2023-02-12T14:43:54Z,42.805,6.029,13.3041,4.60117,2470.544,2023-2-12T16:46:16Z
2023-02-12T14:46:57Z,42.805,6.029,13.3056,4.60115,2470.544,2023-2-12T16:49:19Z
2023-02-12T14:50:00Z,42.805,6.029,13.3058,4.60103,2470.553,2023-2-12T16:52:22Z
2023-02-12T14:53:03Z,42.805,6.029,13.3054,4.60119,2470.544,2023-2-12T16:55:25Z
2023-02-12T14:56:06Z,42.805,6.029,13.3045,4.60115,2470.53,2023-2-12T16:58:28Z
2023-02-12T14:59:09Z,42.805,6.029,13.3043,4.60115,2470.553,2023-2-12T17:01:31Z
2023-02-12T15:02:12Z,42.805,6.029,13.3063,4.60127,2470.507,2023-2-12T17:04:35Z
2023-02-12T15:05:15Z,42.805,6.029,13.3061,4.60115,2470.567,2023-2-12T17:07:38Z
2023-02-12T15:08:18Z,42.805,6.029,13.3048,4.60107,2470.507,2023-2-12T17:10:41Z
2023-02-12T15:11:21Z,42.805,6.029,13.3056,4.60111,2470.544,2023-2-12T17:13:44Z